Location: Laas
(43.4693°N, 0.3073°E)
Time: 14:38:00
(UTC+00:00)

Aureole 3 Rocket - Pass Details

Date: 25 October 2020
Orbit: 399 x 1739 km, 82.5° (Epoch: 23 November)

Event Time Altitude Azimuth Distance (km) Brightness Sun altitude
Rises 18:05:01 0° 175° (S) 2,473 6.2 -12.5°
Reaches altitude 10° 18:06:52 10° 170° (S) 1,696 5.3 -12.9°
Maximum altitude 18:10:25 55° 92° (E) 713 3.0 -13.5°
Drops below altitude 10° 18:15:13 10° 15° (NNE) 2,280 5.8 -14.4°
Sets 18:18:02 0° 12° (NNE) 3,438 6.7 -14.9°
